Meadow Lake, CO

9:16 AM MDT on August 21, 2017 (GMT -0600)
Meadow Lake

Weather History for KFLY - February, 2013

Change the Weather History Date:

Wednesday, February 13, 2013

  Actual Average (KCOS) Record (KCOS)
Temperature  
Mean Temperature 30 °F -  
Max Temperature 45 °F 49 °F 71 °F (1954)
Min Temperature 15 °F 21 °F -23 °F (1905)
Degree Days  
Heating Degree Days 35    
Moisture  
Dew Point 8 °F    
Average Humidity 43    
Maximum Humidity 64    
Minimum Humidity 19    
Precipitation  
Precipitation 0.00 in - - ()
Sea Level Pressure  
Sea Level Pressure 29.95 in    
Wind  
Wind Speed 7 mph (NW)    
Max Wind Speed 15 mph    
Max Gust Speed 24 mph    
Visibility 10 miles    
Events      
Averages and records for this station are not official NWS values.
T = Trace of Precipitation, MM = Missing Value Source: NWS Daily Summary

Daily Weather History Graph

Daily Weather History Graph

Search for Another Location

Airport or City:

Trip Planner

Search our weather history database for the weather conditions in past years. The results will help you decide how hot, cold, wet, or windy it might be!

Date:

Astronomy

Feb. 13, 2013 Rise Set
Actual Time 6:51 AM MST 5:33 PM MST
Civil Twilight 6:24 AM MST 6:01 PM MST
Nautical Twilight 5:52 AM MST 6:32 PM MST
Astronomical Twilight 5:21 AM MST 7:03 PM MST
Moon 8:24 AM MST (2/13) 9:36 PM MST (2/13)
Length of Visible Light 11h 37m
Length of Day
10h 42m
Waxing Crescent, 14% of the Moon is Illuminated
Feb 13
Waxing Crescent
Feb 17
First Quarter
Feb 25
Full
Mar 4
Last Quarter
Mar 11
New

Hourly Weather History & Observations

Time (MST) Temp. Windchill Dew Point Humidity Pressure Visibility Wind Dir Wind Speed Gust Speed Precip Events Conditions
12:13 AM 15.8 °F 7.2 °F 2.8 °F 57% 29.98 in 10.0 mi WNW 5.8 mph - N/A   Clear
12:32 AM 15.4 °F 6.8 °F 2.3 °F 56% 29.98 in 10.0 mi WNW 5.8 mph - N/A   Clear
12:53 AM 15.6 °F 7.0 °F 3.2 °F 58% 29.98 in 10.0 mi NW 5.8 mph - N/A   Clear
1:13 AM 16.3 °F 7.8 °F 2.1 °F 54% 29.98 in 10.0 mi NW 5.8 mph - N/A   Clear
1:33 AM 16.9 °F 9.8 °F 1.0 °F 50% 29.98 in 10.0 mi NW 4.6 mph - N/A   Clear
1:53 AM 17.4 °F 8.0 °F 0.5 °F 48% 29.98 in 10.0 mi NNW 6.9 mph - N/A   Clear
2:13 AM 16.3 °F 9.2 °F 1.8 °F 53% 29.98 in 10.0 mi NW 4.6 mph - N/A   Clear
2:33 AM 16.3 °F 9.2 °F 2.8 °F 55% 29.96 in 10.0 mi West 4.6 mph - N/A   Clear
2:53 AM 18.1 °F 12.9 °F 2.7 °F 51% 29.96 in 10.0 mi NW 3.5 mph - N/A   Clear
3:13 AM 21.2 °F 14.9 °F 1.9 °F 43% 29.95 in 10.0 mi WSW 4.6 mph - N/A   Clear
3:33 AM 20.8 °F 16.0 °F 1.0 °F 42% 29.94 in 10.0 mi West 3.5 mph - N/A   Clear
3:53 AM 20.7 °F 15.8 °F 0.3 °F 41% 29.94 in 10.0 mi West 3.5 mph - N/A   Clear
4:13 AM 19.0 °F 12.3 °F 0.9 °F 45% 29.93 in 10.0 mi WNW 4.6 mph - N/A   Clear
4:33 AM 19.2 °F - 1.8 °F 47% 29.94 in 10.0 mi Calm Calm - N/A   Clear
4:53 AM 16.5 °F 11.0 °F 3.4 °F 56% 29.93 in 10.0 mi WNW 3.5 mph - N/A   Clear
5:13 AM 19.9 °F 13.4 °F 6.1 °F 55% 29.94 in 10.0 mi SW 4.6 mph - N/A   Clear
5:33 AM 19.2 °F 8.4 °F 6.4 °F 58% 29.93 in 10.0 mi WNW 9.2 mph - N/A   Clear
5:53 AM 19.9 °F 8.6 °F 7.5 °F 59% 29.94 in 10.0 mi WNW 10.4 mph - N/A   Clear
6:13 AM 18.7 °F 8.6 °F 6.6 °F 59% 29.93 in 10.0 mi WNW 8.1 mph - N/A   Clear
6:33 AM 20.7 °F 10.2 °F 7.3 °F 56% 29.94 in 10.0 mi West 9.2 mph - N/A   Clear
6:53 AM 22.1 °F 11.3 °F 7.5 °F 54% 29.94 in 10.0 mi West 10.4 mph - N/A   Clear
7:13 AM 20.8 °F 14.4 °F 7.7 °F 57% 29.93 in 10.0 mi West 4.6 mph - N/A   Clear
7:33 AM 22.5 °F 14.1 °F 9.5 °F 58% 29.93 in 10.0 mi West 6.9 mph - N/A   Clear
7:53 AM 28.0 °F 21.7 °F 10.0 °F 47% 29.92 in 10.0 mi WNW 5.8 mph - N/A   Clear
8:13 AM 31.8 °F 25.4 °F 10.2 °F 41% 29.94 in 10.0 mi WSW 6.9 mph - N/A   Clear
8:33 AM 30.4 °F 24.5 °F 11.3 °F 45% 29.94 in 10.0 mi SW 5.8 mph - N/A   Clear
8:53 AM 32.7 °F 25.7 °F 9.3 °F 38% 29.94 in 10.0 mi SW 8.1 mph - N/A   Clear
9:13 AM 34.0 °F 26.6 °F 8.8 °F 35% 29.94 in 10.0 mi SW 9.2 mph - N/A   Clear
9:33 AM 37.4 °F 30.8 °F 8.4 °F 30% 29.94 in 10.0 mi WSW 9.2 mph - N/A   Clear
9:53 AM 36.5 °F 30.3 °F 7.7 °F 30% 29.94 in 10.0 mi SW 8.1 mph - N/A   Clear
10:13 AM 37.8 °F 31.8 °F 7.9 °F 29% 29.94 in 10.0 mi WSW 8.1 mph - N/A   Clear
10:33 AM 39.2 °F 33.0 °F 8.2 °F 28% 29.93 in 10.0 mi WSW 9.2 mph - N/A   Clear
10:53 AM 40.6 °F 34.3 °F 7.9 °F 26% 29.93 in 10.0 mi SSW 10.4 mph - N/A   Clear
11:13 AM 41.9 °F 37.5 °F 7.9 °F 25% 29.93 in 10.0 mi SW 6.9 mph - N/A   Clear
11:33 AM 43.0 °F 37.7 °F 7.0 °F 23% 29.93 in 10.0 mi SSW 9.2 mph - N/A   Clear
11:53 AM 42.1 °F 37.7 °F 6.6 °F 23% 29.93 in 10.0 mi South 6.9 mph - N/A   Clear
12:13 PM 42.1 °F 36.6 °F 7.0 °F 24% 29.93 in 10.0 mi SSW 9.2 mph 17.3 mph N/A   Clear
12:33 PM 45.3 °F 41.1 °F 7.2 °F 21% 29.93 in 10.0 mi WSW 8.1 mph - N/A   Clear
12:53 PM 45.0 °F 38.5 °F 6.4 °F 21% 29.93 in 10.0 mi NNW 13.8 mph 20.7 mph N/A   Clear
1:13 PM 45.7 °F 39.5 °F 5.0 °F 19% 29.93 in 10.0 mi North 13.8 mph 23.0 mph N/A   Clear
1:33 PM 43.7 °F 36.9 °F 7.9 °F 23% 29.93 in 10.0 mi North 13.8 mph 24.2 mph N/A   Clear
1:53 PM 44.4 °F 38.6 °F 8.4 °F 23% 29.93 in 10.0 mi North 11.5 mph 20.7 mph N/A   Clear
2:13 PM 44.6 °F 37.8 °F 9.0 °F 23% 29.92 in 10.0 mi North 15.0 mph 20.7 mph N/A   Clear
2:33 PM 44.6 °F 37.8 °F 9.5 °F 24% 29.92 in 10.0 mi NNW 15.0 mph 19.6 mph N/A   Clear
2:53 PM 44.4 °F 37.9 °F 9.3 °F 24% 29.92 in 10.0 mi NNW 13.8 mph 20.7 mph N/A   Clear
3:13 PM 44.4 °F 38.6 °F 9.0 °F 24% 29.93 in 10.0 mi NW 11.5 mph 19.6 mph N/A   Clear
3:33 PM 44.4 °F 39.0 °F 8.6 °F 23% 29.93 in 10.0 mi NNW 10.4 mph - N/A   Clear
3:53 PM 41.9 °F 35.4 °F 8.2 °F 25% 29.93 in 10.0 mi North 11.5 mph 17.3 mph N/A   Clear
4:13 PM 40.1 °F 33.2 °F 7.9 °F 27% 29.93 in 10.0 mi NNE 11.5 mph 18.4 mph N/A   Clear
4:33 PM 39.6 °F 34.7 °F 8.6 °F 28% 29.94 in 10.0 mi North 6.9 mph - N/A   Clear
4:53 PM 37.8 °F 31.8 °F 9.5 °F 31% 29.93 in 10.0 mi North 8.1 mph - N/A   Clear
5:13 PM 36.1 °F 30.6 °F 10.4 °F 35% 29.94 in 10.0 mi North 6.9 mph - N/A   Clear
5:33 PM 33.8 °F 27.7 °F 10.9 °F 39% 29.94 in 10.0 mi NNW 6.9 mph - N/A   Clear
5:53 PM 32.0 °F 24.2 °F 11.5 °F 43% 29.95 in 10.0 mi North 9.2 mph - N/A   Clear
6:13 PM 32.7 °F 25.0 °F 11.3 °F 41% 29.95 in 10.0 mi NNW 9.2 mph - N/A   Clear
6:33 PM 32.0 °F 26.4 °F 11.1 °F 42% 29.96 in 10.0 mi NNW 5.8 mph - N/A   Clear
6:53 PM 31.3 °F 26.6 °F 11.3 °F 44% 29.97 in 10.0 mi NNW 4.6 mph - N/A   Clear
7:13 PM 28.4 °F 21.2 °F 12.2 °F 51% 29.97 in 10.0 mi NW 6.9 mph - N/A   Clear
7:33 PM 27.3 °F 19.9 °F 12.2 °F 53% 29.98 in 10.0 mi NW 6.9 mph - N/A   Clear
7:53 PM 27.3 °F 19.9 °F 12.6 °F 54% 29.99 in 10.0 mi NW 6.9 mph - N/A   Clear
8:13 PM 25.9 °F 19.2 °F 12.6 °F 57% 29.99 in 10.0 mi NNW 5.8 mph - N/A   Clear
8:33 PM 26.4 °F 18.0 °F 12.2 °F 55% 29.99 in 10.0 mi NW 8.1 mph - N/A   Clear
8:53 PM 24.3 °F 18.4 °F 12.7 °F 62% 30.00 in 10.0 mi NNW 4.6 mph - N/A   Clear
9:13 PM 24.3 °F 17.3 °F 12.0 °F 60% 30.00 in 10.0 mi NW 5.8 mph - N/A   Clear
9:33 PM 24.4 °F 18.6 °F 12.2 °F 60% 30.00 in 10.0 mi NNW 4.6 mph - N/A   Clear
9:53 PM 22.8 °F 15.5 °F 12.4 °F 64% 30.00 in 10.0 mi NW 5.8 mph - N/A   Clear
10:13 PM 24.3 °F 16.3 °F 12.2 °F 60% 30.00 in 10.0 mi NW 6.9 mph - N/A   Clear
10:33 PM 25.3 °F 18.5 °F 12.0 °F 57% 30.00 in 10.0 mi NW 5.8 mph - N/A   Clear
10:53 PM 27.1 °F 23.2 °F 11.3 °F 51% 30.00 in 10.0 mi North 3.5 mph - N/A   Clear
11:13 PM 28.6 °F 21.5 °F 10.6 °F 47% 30.00 in 10.0 mi North 6.9 mph - N/A   Clear
11:33 PM 26.6 °F 20.0 °F 11.5 °F 53% 30.00 in 10.0 mi North 5.8 mph - N/A   Clear
11:53 PM 26.1 °F 20.5 °F 12.0 °F 55% 30.00 in 10.0 mi North 4.6 mph - N/A   Clear